[[{"header":{"parameterUnit":"m.s-1","parameterCategory":1,"la1":30.2991,"la2":30.254,"lo1":-89.0895,"lo2":-89.0444,"dy":0.0017,"dx":0.0017,"nx":28,"ny":28,"refTime":"2024-03-25T03:00:00:Z","depth":0,"parameterNumber":2,"parameterNumberName":"U-component_of_WINDS"},"data":[0,0,0,0,0,0,0,0,0,0,0,0,0,0,0,0,0,0,0,0,0,0,0,0,0,0,0,0,0,0,0,0,0,0,0,0,0,0,0,0,0,0,0,0,0,0,0,0,0,0,0,0,0,0,0,0,0,0,-8.1721,-8.1724,0,-8.2025,-8.2028,-8.2032,-8.2144,-8.2143,-8.2142,-8.2141,-8.2447,-8.2456,-8.2465,0,0,0,0,0,0,0,0,0,0,0,0,0,-8.1235,-8.1243,-8.1721,-8.1724,-8.1728,-8.2024,-8.2028,-8.2032,-8.2144,-8.2143,-8.2142,-8.2141,-8.2445,-8.2455,-8.2466,0,0,0,0,0,0,0,0,0,0,0,0,0,-8.1482,-8.1246,-8.172,-8.182,-8.1832,-8.2023,-8.2028,-8.2034,-8.2145,-8.2143,-8.2142,-8.214,-8.2441,-8.2454,-8.2468,-8.258,0,0,-8.2509,-8.2515,0,0,0,0,0,0,0,0,-8.1468,-8.15,-8.1801,-8.1813,-8.1827,-8.2045,-8.1969,-8.2217,-8.2145,-8.2026,-8.2141,-8.214,-8.2314,-8.2338,-8.2398,-8.2595,-8.2608,-8.251,-8.2518,-8.2524,-8.2528,0,0,0,0,0,0,0,-8.1451,-8.1488,-8.1841,-8.1806,-8.1821,-8.1849,-8.1882,-8.2017,-8.2174,-8.2036,-8.2045,-8.208,-8.2321,-8.2385,-8.2406,-8.2612,-8.251,-8.2522,-8.253,-8.2536,-8.2918,-8.292,0,0,0,0,0,0,-8.1418,-8.1473,-8.1831,-8.185,-8.1641,-8.1859,-8.1896,-8.1977,-8.2173,-8.2202,-8.2081,-8.2084,-8.2363,-8.239,-8.2417,-8.2563,-8.2524,-8.2537,-8.2545,-8.2916,-8.2918,-8.2921,0,0,0,0,0,0,-8.1407,-8.1449,-8.1819,-8.1664,-8.1713,-8.1869,-8.1958,-8.1983,-8.2047,-8.2207,-8.2235,-8.2117,-8.2362,-8.2398,-8.254,-8.2575,-8.2543,-8.2555,-8.2914,-8.2917,-8.2919,-8.2854,0,0,0,0,0,0,-8.1392,-8.1444,-8.1489,-8.1664,-8.1721,-8.1936,-8.196,-8.199,-8.2071,-8.2078,-8.2249,-8.2275,-8.2364,-8.2519,-8.2553,-8.2593,-8.2566,-8.2911,-8.2915,-8.2918,-8.2853,-8.2854,-8.2855,0,0,0,0,0,-8.1375,-8.1457,-8.149,-8.1533,-8.1781,-8.1938,-8.1971,-8.2072,-8.2073,-8.2119,-8.2223,-8.227,-8.2566,-8.2532,-8.2572,-8.2616,-8.2909,-8.2914,-8.2918,-8.2853,-8.2854,-8.2855,0,0,0,0,0,0,-8.1279,-8.1481,-8.1521,-8.1663,-8.1783,-8.1957,-8.2018,-8.207,-8.2191,-8.2192,-8.2312,-8.235,-8.2481,-8.2564,-8.2522,-8.2737,-8.2741,-8.2753,-8.2678,-8.268,-8.2681,-8.2657,-8.2577,0,0,0,0,0,-8.1275,-8.1387,-8.1558,-8.1666,-8.1725,-8.1861,-8.1933,-8.2002,-8.213,-8.2181,-8.2294,-8.2416,-8.2537,-8.2613,-8.2733,-8.2867,-8.2906,-8.2917,-8.2918,-8.2918,-8.2926,-8.3004,-8.3011,-8.2935,-8.2935,-8.2935,0,0,-8.1266,-8.1391,-8.1454,-8.165,-8.1751,-8.1864,-8.1903,-8.202,-8.2104,-8.2198,-8.2339,-8.2426,-8.257,-8.2708,-8.2775,-8.2781,-8.2957,-8.2924,-8.2922,-8.2931,-8.3009,-8.3016,-8.3023,-8.2938,-8.2938,-8.2937,0,0,-8.1309,-8.1415,-8.1517,-8.1618,-8.1772,-8.1862,-8.1887,-8.2055,-8.2117,-8.2261,-8.2334,-8.2436,-8.2641,-8.2741,-8.2818,-8.2902,-8.295,-8.2938,-8.294,-8.3014,-8.302,-8.3026,-8.3055,-8.3064,-8.2946,-8.2946,-8.2946,0,-8.1278,-8.1452,-8.1562,-8.1677,-8.1761,-8.1854,-8.1958,-8.2051,-8.2234,-8.229,-8.2295,-8.2556,-8.266,-8.2823,-8.2843,-8.2903,-8.2935,-8.2917,-8.3011,-8.3018,-8.3025,-8.3054,-8.3065,-8.2944,-8.2944,-8.2944,-8.2944,0,-8.1407,-8.1527,-8.1591,-8.1768,-8.186,-8.1968,-8.2095,-8.2174,-8.2235,-8.2325,-8.2471,-8.2599,-8.2746,-8.2791,-8.2851,-8.2963,-8.2962,-8.2988,-8.2994,-8.3028,-8.3057,-8.3069,-8.294,-8.2941,-8.2942,-8.2942,0,0,-8.1394,-8.1634,-8.1656,-8.1738,-8.1915,-8.2009,-8.2122,-8.2269,-8.2335,-8.2459,-8.2556,-8.273,-8.2755,-8.2843,-8.2916,-8.2981,-8.3039,-8.2999,-8.3005,-8.3001,-8.317,-8.3149,-8.316,-8.3073,-8.3076,-8.3078,-8.3158,0,-8.1459,-8.1667,-8.177,-8.1932,-8.2044,-8.2136,-8.2235,-8.2353,-8.2441,-8.2548,-8.2645,-8.2766,-8.279,-8.2844,-8.2913,-8.3017,-8.3074,-8.3013,-8.3164,-8.3168,-8.3123,-8.3175,-8.3153,-8.3222,-8.317,-8.3172,-8.3174,0,-8.1562,-8.1687,-8.1861,-8.2027,-8.2078,-8.2164,-8.2308,-8.241,-8.2547,-8.2606,-8.2706,-8.2778,-8.29,-8.2899,-8.3069,-8.3025,-8.3094,-8.3154,-8.316,-8.3176,-8.3171,-8.3191,-8.3246,-8.3256,-8.3193,-8.3191,-8.319,0,-8.1534,-8.1747,-8.1878,-8.1946,-8.2143,-8.2202,-8.2287,-8.2423,-8.2505,-8.2631,-8.2685,-8.2822,-8.2897,-8.3002,-8.3109,-8.3098,-8.3268,-8.3276,-8.332,-8.3317,-8.3349,-8.3345,-8.3414,-8.3396,-8.3396,-8.3395,-8.3395,0,-8.1594,-8.1696,-8.1869,-8.1949,-8.2067,-8.2186,-8.2298,-8.239,-8.2511,-8.2611,-8.2699,-8.279,-8.2927,-8.3035,-8.312,-8.3247,-8.3281,-8.3331,-8.3352,-8.3323,-8.3316,-8.3367,-8.3365,-8.3398,-8.3398,-8.3397,-8.3397,0,-8.1582,-8.1702,-8.1851,-8.2027,-8.2073,-8.2152,-8.2302,-8.2383,-8.2477,-8.2602,-8.2638,-8.2784,-8.2917,-8.3035,-8.321,-8.3267,-8.3397,-8.3424,-8.335,-8.3362,-8.3398,-8.3392,-8.3501,-8.3521,-8.3489,-8.349,-8.349,0,-8.1611,-8.1693,-8.1877,-8.1951,-8.2035,-8.2153,-8.2238,-8.2358,-8.2443,-8.2607,-8.2669,-8.2808,-8.2926,-8.3134,-8.3255,-8.339,-8.342,-8.3449,-8.344,-8.3408,-8.3419,-8.3412,-8.342,-8.3447,-8.3446,-8.3446,-8.3446,0,-8.1651,-8.1707,-8.1827,-8.1968,-8.2067,-8.2184,-8.2302,-8.2358,-8.2501,-8.2592,-8.2729,-8.2821,-8.3001,-8.3138,-8.3287,-8.3374,-8.3434,-8.3448,-8.3465,-8.3435,-8.3389,-8.3413,-8.3347,-8.3444,-8.3445,-8.3445,-8.3445,-8.3445,-8.1661,-8.1737,-8.188,-8.201,-8.2113,-8.2223,-8.2308,-8.2414,-8.2531,-8.2688,-8.2752,-8.2892,-8.3029,-8.3236,-8.3323,-8.3434,-8.3444,-8.3469,-8.3475,-8.3479,-8.3473,-8.3373,-8.3461,-8.3461,-8.3462,-8.3462,-8.3462,0,-8.1704,-8.1801,-8.192,-8.2085,-8.2188,-8.2238,-8.2372,-8.2455,-8.2577,-8.2701,-8.2816,-8.2974,-8.3108,-8.3241,-8.3383,-8.3446,-8.3477,-8.3479,-8.3474,-8.3493,-8.3456,-8.3426,-8.3451,-8.3451,-8.3451,-8.3451,-8.3451,-8.3451,-8.1738,-8.1871,-8.1944,-8.2128,-8.2225,-8.2363,-8.2436,-8.2538,-8.2637,-8.2811,-8.2923,-8.301,-8.3137,-8.3289,-8.3414,-8.345,-8.3497,-8.3492,-8.3534,-8.3496,-8.3496,-8.3495,-8.3468,-8.3501,-8.3501,-8.3563,-8.3563,-8.3564]},{"header":{"parameterUnit":"m.s-1","parameterCategory":1,"la1":30.2991,"la2":30.254,"lo1":-89.0895,"lo2":-89.0444,"dy":0.0017,"dx":0.0017,"nx":28,"ny":28,"refTime":"2024-03-25T03:00:00:Z","depth":0,"parameterNumber":3,"parameterNumberName":"V-component_of_WINDS"},"data":[0,0,0,0,0,0,0,0,0,0,0,0,0,0,0,0,0,0,0,0,0,0,0,0,0,0,0,0,0,0,0,0,0,0,0,0,0,0,0,0,0,0,0,0,0,0,0,0,0,0,0,0,0,0,0,0,0,0,6.1657,6.1658,0,6.1727,6.1728,6.1729,6.1718,6.1717,6.1716,6.1715,6.1781,6.1783,6.1786,0,0,0,0,0,0,0,0,0,0,0,0,0,6.1512,6.1514,6.1657,6.1658,6.1659,6.1727,6.1728,6.1729,6.1718,6.1717,6.1715,6.1714,6.178,6.1783,6.1787,0,0,0,0,0,0,0,0,0,0,0,0,0,6.1577,6.1515,6.1657,6.1662,6.1663,6.1727,6.1728,6.1729,6.1719,6.1717,6.1715,6.1713,6.1779,6.1783,6.1787,6.1849,0,0,6.18,6.1802,0,0,0,0,0,0,0,0,6.1574,6.1583,6.1661,6.1662,6.1663,6.1712,6.1701,6.1769,6.1719,6.1697,6.1715,6.1712,6.1759,6.1765,6.1782,6.1852,6.1855,6.18,6.1803,6.1805,6.1806,0,0,0,0,0,0,0,6.1569,6.158,6.1685,6.1662,6.1663,6.166,6.1667,6.1714,6.1737,6.1699,6.1699,6.1707,6.1759,6.1777,6.1783,6.1856,6.18,6.1804,6.1807,6.1808,6.1982,6.1984,0,0,0,0,0,0,6.1564,6.1576,6.1683,6.1687,6.1613,6.1664,6.1672,6.1698,6.1737,6.1741,6.1709,6.1706,6.1771,6.1778,6.1785,6.1862,6.1805,6.1809,6.1811,6.198,6.1983,6.1985,0,0,0,0,0,0,6.1561,6.1573,6.168,6.1631,6.1645,6.1668,6.1698,6.17,6.1719,6.1744,6.1747,6.1723,6.177,6.1779,6.1834,6.1864,6.1811,6.1815,6.1978,6.1981,6.1984,6.2015,0,0,0,0,0,0,6.1557,6.1572,6.1597,6.1632,6.1647,6.1728,6.1699,6.1703,6.1727,6.1725,6.1758,6.1762,6.1769,6.1828,6.1838,6.1869,6.1818,6.1975,6.1979,6.1983,6.2011,6.2019,6.2025,0,0,0,0,0,6.1551,6.1601,6.1598,6.1611,6.1678,6.173,6.1739,6.1747,6.1729,6.1754,6.177,6.1761,6.1859,6.1833,6.1845,6.1878,6.1973,6.1978,6.1983,6.2008,6.2017,6.2025,0,0,0,0,0,0,6.1565,6.1605,6.1603,6.1665,6.1695,6.1728,6.1759,6.1756,6.179,6.1786,6.1794,6.1802,6.1858,6.1873,6.1843,6.1941,6.1914,6.1921,6.1929,6.1938,6.1944,6.194,6.1822,0,0,0,0,0,6.1576,6.1617,6.1648,6.17,6.1716,6.1735,6.1758,6.1762,6.1792,6.1804,6.1824,6.1853,6.189,6.1914,6.195,6.2013,6.2021,6.2041,6.2048,6.2054,6.206,6.2097,6.2107,6.2,6.2,6.2,0,0,6.1598,6.1625,6.1649,6.1704,6.1727,6.1769,6.1745,6.1789,6.1819,6.181,6.1864,6.188,6.1912,6.1973,6.2,6.1987,6.2092,6.206,6.2064,6.2067,6.2103,6.2113,6.2122,6.2003,6.2003,6.2002,0,0,6.166,6.1683,6.1731,6.1756,6.1793,6.1806,6.1817,6.1852,6.1863,6.1918,6.1913,6.1948,6.2012,6.2036,6.2056,6.213,6.2124,6.2141,6.2177,6.2213,6.2221,6.2229,6.2257,6.2266,6.2147,6.2147,6.2147,0,6.1682,6.1745,6.1755,6.1801,6.1825,6.1822,6.187,6.1892,6.1938,6.1955,6.194,6.2022,6.2043,6.211,6.2129,6.2145,6.2158,6.2137,6.2219,6.2227,6.2234,6.2261,6.2271,6.2149,6.2149,6.2149,6.2148,0,6.1771,6.1815,6.1849,6.1896,6.1924,6.1971,6.1988,6.2015,6.2017,6.2032,6.2088,6.2114,6.2156,6.2172,6.2173,6.224,6.2231,6.2218,6.2191,6.2246,6.2272,6.2282,6.2152,6.2151,6.2151,6.215,0,0,6.1843,6.1898,6.191,6.1933,6.1974,6.2008,6.2054,6.2097,6.2121,6.2153,6.2193,6.2248,6.2237,6.2261,6.2265,6.2296,6.2355,6.2279,6.228,6.2294,6.2432,6.2443,6.2455,6.2351,6.2353,6.2355,6.243,0,6.191,6.1994,6.2006,6.208,6.2122,6.212,6.216,6.219,6.2205,6.2241,6.2257,6.2297,6.2279,6.2293,6.2324,6.2342,6.2383,6.2336,6.2388,6.239,6.2382,6.2468,6.2479,6.2549,6.244,6.2441,6.2443,0,6.1999,6.2037,6.2116,6.2155,6.2172,6.2209,6.2251,6.2286,6.2319,6.2328,6.2356,6.2357,6.2405,6.2376,6.2442,6.241,6.2432,6.2444,6.2447,6.2453,6.242,6.2477,6.2571,6.2582,6.2458,6.2457,6.2456,0,6.2046,6.2116,6.2174,6.2193,6.2238,6.2264,6.2284,6.2316,6.2343,6.2379,6.2396,6.2436,6.2458,6.2489,6.2501,6.2479,6.2568,6.2539,6.2577,6.2577,6.2596,6.2595,6.2696,6.2608,6.2608,6.2607,6.2607,0,6.212,6.2169,6.2196,6.2231,6.2286,6.2299,6.2353,6.2371,6.2401,6.2439,6.2438,6.2474,6.2488,6.2525,6.2535,6.259,6.2599,6.2607,6.261,6.2609,6.2608,6.2624,6.262,6.261,6.261,6.2609,6.2609,0,6.2182,6.2202,6.2265,6.2304,6.2315,6.2354,6.2387,6.2421,6.2437,6.2486,6.2498,6.2521,6.2566,6.2581,6.2635,6.2641,6.2706,6.2702,6.2695,6.2696,6.2734,6.2731,6.2849,6.2866,6.2765,6.2766,6.2767,0,6.2229,6.2268,6.2312,6.2339,6.2361,6.2404,6.2432,6.2446,6.2474,6.2517,6.2546,6.2591,6.2629,6.27,6.2722,6.2763,6.2762,6.2801,6.2768,6.2767,6.2765,6.2763,6.2768,6.2807,6.2808,6.2809,6.281,0,6.2312,6.232,6.2361,6.2407,6.2441,6.2476,6.251,6.2532,6.2551,6.2583,6.2631,6.266,6.2716,6.2761,6.2804,6.2823,6.282,6.282,6.2831,6.2831,6.2827,6.2832,6.2714,6.2817,6.2817,6.2816,6.2816,6.2815,6.2369,6.2404,6.2442,6.2488,6.2516,6.2549,6.2584,6.2605,6.2646,6.2694,6.2699,6.2751,6.2785,6.2842,6.2864,6.2904,6.2893,6.2908,6.2913,6.2917,6.2921,6.2819,6.2911,6.2911,6.2911,6.2911,6.2911,0,6.2453,6.2478,6.2521,6.2571,6.2607,6.2603,6.2641,6.2672,6.2718,6.2751,6.2788,6.2844,6.2888,6.2914,6.2958,6.2985,6.2985,6.2997,6.2995,6.3,6.2927,6.2914,6.2996,6.2996,6.2996,6.2996,6.2996,6.2996,6.2502,6.2562,6.2575,6.2649,6.2673,6.2726,6.2748,6.2778,6.2805,6.2868,6.2906,6.2923,6.2953,6.3,6.3041,6.3047,6.3064,6.3077,6.3082,6.3014,6.3005,6.2997,6.2985,6.308,6.308,6.3152,6.3153,6.3154]}]]